This is the latest recevied weather packets stored in our database for station/object JF2ZGN-13. If no packets are shown the sender has not sent any weather packets the latest 10 day(s).
| Time | Temp. | Humidity | Pressure | Rain* | Wind** | Luminosity | Snow |
|---|---|---|---|---|---|---|---|
| 1787858356 | 20.56° C | 64% | 906.9 hPa | 13.97 mm | - | - | - |
| 1787857756 | 20.56° C | 63% | 906.9 hPa | 13.72 mm | - | - | - |
| 1787857155 | 20.56° C | 67% | 907.1 hPa | 13.72 mm | - | - | - |
| 1787856555 | 20.56° C | 66% | 907 hPa | 13.72 mm | - | - | - |
| 1787855954 | 20.56° C | 65% | 907.2 hPa | 13.72 mm | - | - | - |
| 1787855354 | 20.56° C | 62% | 907.3 hPa | 13.72 mm | - | - | - |
| 1787854753 | 20.56° C | 62% | 907.3 hPa | 13.72 mm | - | - | - |
| 1787854153 | 20.56° C | 61% | 907.3 hPa | 13.72 mm | - | - | - |
| 1787853552 | 20.56° C | 44% | 906.7 hPa | 13.72 mm | - | - | - |
| 1787852952 | 20.56° C | 40% | 906.6 hPa | 13.72 mm | - | - | - |
| 1787852352 | 20.56° C | 42% | 906.6 hPa | 13.72 mm | - | - | - |
| 1787851751 | 20.56° C | 52% | 907 hPa | 13.72 mm | - | - | - |
| 1787851150 | 20° C | 59% | 907.2 hPa | 13.46 mm | - | - | - |
| 1787850550 | 19.44° C | 56% | 907 hPa | 13.46 mm | - | - | - |
| 1787849949 | 20° C | 66% | 907.6 hPa | 12.95 mm | - | - | - |
| 1787849349 | 20.56° C | 77% | 907.6 hPa | 4.06 mm | - | - | - |
| 1787848748 | 20.56° C | 74% | 907 hPa | 0 mm | - | - | - |
| 1787848148 | 20.56° C | 75% | 906.4 hPa | 0 mm | - | - | - |
| 1787847547 | 20.56° C | 71% | 906.4 hPa | 0 mm | - | - | - |
| 1787846946 | 21.11° C | 70% | 906.7 hPa | 0 mm | - | - | - |
| 1787846345 | 21.11° C | 67% | 906.7 hPa | 0 mm | - | - | - |
| 1787845746 | 20.56° C | 58% | 907.2 hPa | 0 mm | - | - | - |
| 1787845145 | 20.56° C | 44% | 907.5 hPa | 0 mm | - | - | - |
| 1787844544 | 20.56° C | 57% | 907.2 hPa | 0 mm | - | - | - |
| 1787843944 | 20.56° C | 60% | 907.6 hPa | 0 mm | - | - | - |
* Rain since midnight (hover to see other rain measurements)
** Current wind speed in m/s (hover to see current wind gust speed)